QPF
0.00 0.00 0.00 0.00 0.00 0.00 0.00 0.00 0.00 0.00 0.00 0.00 0.00 0.01 0.02 0.05 0.05 0.03 0.02 0.01 0.00 0.01 0.01 0.02 0.04 0.05 0.06 0.07 0.07 0.06 0.07 0.07 0.07 0.07 0.08 0.06 0.05 0.04 0.05 0.07 0.07 0.06 0.05
0.00 0.00 0.00 0.00 0.01 0.01 0.00 0.00 0.00 0.00 0.00 0.00 0.00 0.01 0.02 0.05 0.07 0.05 0.04 0.02 0.01 0.02 0.02 0.03 0.04 0.04 0.06 0.08 0.09 0.08 0.07 0.07 0.07 0.07 0.07 0.08 0.10 0.07 0.05 0.06 0.07 0.08 0.07
0.00 0.00 0.00 0.00 0.00 0.01 0.01 0.00 0.00 0.00 0.00 0.00 0.01 0.02 0.02 0.04 0.08 0.08 0.07 0.05 0.03 0.03 0.03 0.04 0.05 0.05 0.05 0.08 0.09 0.10 0.08 0.07 0.07 0.06 0.06 0.06 0.07 0.09 0.09 0.07 0.06 0.07 0.09
0.00 0.00 0.00 0.00 0.00 0.00 0.00 0.00 0.00 0.00 0.00 0.00 0.01 0.02 0.02 0.04 0.07 0.08 0.09 0.07 0.05 0.04 0.04 0.04 0.04 0.06 0.07 0.07 0.09 0.11 0.12 0.10 0.09 0.09 0.08 0.05 0.04 0.06 0.09 0.10 0.09 0.08 0.08
0.00 0.00 0.00 0.00 0.00 0.00 0.00 0.00 0.00 0.00 0.00 0.00 0.01 0.03 0.02 0.03 0.06 0.06 0.07 0.08 0.07 0.05 0.03 0.03 0.03 0.04 0.06 0.06 0.09 0.11 0.13 0.12 0.10 0.10 0.10 0.10 0.08 0.06 0.06 0.08 0.10 0.10 0.08
0.00 0.00 0.00 0.00 0.00 0.00 0.00 0.00 0.00 0.00 0.00 0.01 0.01 0.03 0.03 0.04 0.05 0.05 0.05 0.05 0.05 0.05 0.02 0.02 0.03 0.03 0.05 0.06 0.07 0.08 0.08 0.10 0.10 0.09 0.09 0.10 0.11 0.09 0.07 0.05 0.06 0.07 0.07
0.00 0.00 0.00 0.00 0.00 0.00 0.00 0.01 0.01 0.01 0.00 0.00 0.01 0.03 0.04 0.03 0.04 0.03 0.04 0.03 0.04 0.04 0.03 0.02 0.02 0.02 0.03 0.03 0.04 0.06 0.05 0.05 0.07 0.07 0.06 0.06 0.07 0.07 0.06 0.05 0.05 0.06 0.06
0.00 0.00 0.00 0.00 0.00 0.00 0.00 0.01 0.01 0.02 0.02 0.01 0.01 0.03 0.03 0.03 0.03 0.03 0.04 0.04 0.03 0.02 0.02 0.02 0.02 0.01 0.02 0.02 0.03 0.04 0.05 0.05 0.06 0.06 0.05 0.05 0.04 0.05 0.05 0.05 0.06 0.07 0.08
0.01 0.00 0.00 0.00 0.00 0.00 0.00 0.00 0.00 0.03 0.05 0.04 0.03 0.03 0.04 0.05 0.03 0.03 0.03 0.04 0.03 0.02 0.02 0.02 0.02 0.02 0.02 0.02 0.03 0.04 0.05 0.05 0.04 0.04 0.04 0.04 0.04 0.04 0.05 0.06 0.06 0.07 0.08
0.01 0.00 0.00 0.00 0.00 0.00 0.00 0.00 0.00 0.00 0.02 0.05 0.04 0.04 0.05 0.06 0.05 0.05 0.04 0.04 0.03 0.03 0.02 0.02 0.02 0.02 0.02 0.02 0.04 0.05 0.05 0.06 0.05 0.05 0.04 0.04 0.04 0.04 0.04 0.06 0.06 0.06 0.08
0.01 0.00 0.00 0.00 0.00 0.00 0.00 0.00 0.00 0.00 0.01 0.02 0.02 0.02 0.04 0.06 0.06 0.05 0.03 0.05 0.06 0.06 0.04 0.03 0.03 0.02 0.01 0.02 0.03 0.05 0.06 0.06 0.06 0.05 0.05 0.04 0.04 0.04 0.04 0.05 0.07 0.08 0.08
0.01 0.01 0.01 0.01 0.01 0.01 0.01 0.01 0.01 0.01 0.02 0.03 0.03 0.02 0.03 0.05 0.04 0.02 0.02 0.03 0.04 0.06 0.05 0.04 0.03 0.02 0.02 0.02 0.02 0.03 0.04 0.05 0.05 0.05 0.04 0.03 0.03 0.03 0.04 0.05 0.06 0.08 0.09
0.02 0.02 0.02 0.02 0.03 0.03 0.02 0.01 0.01 0.01 0.03 0.04 0.04 0.03 0.03 0.03 0.02 0.01 0.01 0.01 0.02 0.03 0.04 0.05 0.04 0.03 0.02 0.02 0.02 0.02 0.03 0.04 0.04 0.04 0.03 0.02 0.02 0.03 0.03 0.04 0.06 0.07 0.09
0.01 0.02 0.03 0.03 0.03 0.03 0.03 0.02 0.02 0.03 0.03 0.03 0.03 0.03 0.02 0.02 0.01 0.01 0.01 0.02 0.02 0.02 0.02 0.03 0.03 0.03 0.02 0.03 0.03 0.04 0.03 0.03 0.03 0.03 0.04 0.03 0.02 0.02 0.02 0.03 0.03 0.06 0.09
0.00 0.01 0.01 0.02 0.03 0.05 0.04 0.03 0.03 0.04 0.04 0.02 0.02 0.03 0.02 0.01 0.01 0.01 0.01 0.02 0.02 0.03 0.02 0.02 0.03 0.02 0.03 0.03 0.04 0.04 0.03 0.03 0.03 0.03 0.03 0.03 0.02 0.02 0.03 0.03 0.04 0.05 0.08
0.00 0.01 0.01 0.01 0.02 0.02 0.01 0.01 0.01 0.02 0.03 0.02 0.02 0.02 0.02 0.02 0.02 0.01 0.01 0.01 0.02 0.02 0.03 0.03 0.03 0.03 0.03 0.04 0.04 0.04 0.03 0.03 0.03 0.03 0.03 0.03 0.03 0.03 0.04 0.04 0.04 0.05 0.07
0.01 0.01 0.01 0.02 0.02 0.02 0.01 0.00 0.00 0.00 0.01 0.01 0.01 0.01 0.01 0.01 0.01 0.01 0.01 0.01 0.02 0.03 0.03 0.03 0.03 0.03 0.03 0.05 0.05 0.04 0.04 0.03 0.03 0.03 0.04 0.03 0.02 0.03 0.04 0.05 0.05 0.06 0.08
0.01 0.02 0.02 0.02 0.02 0.01 0.01 0.00 0.00 0.00 0.00 0.00 0.00 0.00 0.00 0.01 0.01 0.01 0.01 0.01 0.02 0.03 0.03 0.04 0.04 0.04 0.04 0.04 0.04 0.03 0.02 0.03 0.04 0.05 0.05 0.04 0.03 0.03 0.05 0.07 0.07 0.08 0.09
0.02 0.02 0.02 0.02 0.02 0.01 0.01 0.00 0.00 0.00 0.00 0.00 0.00 0.00 0.00 0.01 0.01 0.01 0.01 0.01 0.02 0.03 0.03 0.04 0.05 0.05 0.03 0.03 0.03 0.02 0.02 0.02 0.03 0.04 0.05 0.05 0.04 0.04 0.05 0.08 0.09 0.09 0.09
0.01 0.01 0.02 0.02 0.02 0.01 0.01 0.01 0.01 0.01 0.00 0.01 0.01 0.01 0.01 0.01 0.01 0.01 0.01 0.02 0.02 0.02 0.03 0.03 0.04 0.04 0.04 0.03 0.03 0.03 0.02 0.02 0.02 0.03 0.04 0.06 0.05 0.05 0.06 0.07 0.10 0.11 0.09
0.01 0.01 0.01 0.01 0.01 0.01 0.01 0.01 0.01 0.01 0.00 0.01 0.01 0.02 0.01 0.01 0.01 0.01 0.02 0.02 0.02 0.02 0.02 0.02 0.03 0.04 0.03 0.03 0.03 0.03 0.03 0.03 0.02 0.02 0.04 0.05 0.06 0.07 0.08 0.08 0.10 0.12 0.11
0.01 0.01 0.01 0.01 0.01 0.01 0.01 0.01 0.01 0.01 0.01 0.02 0.02 0.02 0.02 0.02 0.02 0.01 0.02 0.02 0.02 0.03 0.02 0.02 0.02 0.03 0.03 0.04 0.04 0.04 0.04 0.04 0.04 0.04 0.05 0.06 0.07 0.09 0.10 0.11 0.11 0.13 0.14
0.01 0.02 0.02 0.01 0.01 0.01 0.01 0.01 0.01 0.01 0.01 0.03 0.03 0.03 0.03 0.03 0.03 0.02 0.03 0.03 0.03 0.03 0.03 0.02 0.02 0.02 0.03 0.04 0.04 0.05 0.05 0.06 0.06 0.06 0.06 0.07 0.09 0.11 0.12 0.12 0.12 0.12 0.12
0.02 0.02 0.02 0.01 0.01 0.01 0.02 0.02 0.02 0.02 0.03 0.04 0.04 0.04 0.03 0.03 0.03 0.02 0.03 0.03 0.03 0.04 0.03 0.02 0.02 0.02 0.03 0.04 0.04 0.04 0.05 0.05 0.06 0.06 0.06 0.09 0.11 0.13 0.14 0.14 0.12 0.11 0.10
0.02 0.02 0.02 0.02 0.01 0.01 0.01 0.02 0.02 0.03 0.03 0.03 0.03 0.03 0.03 0.03 0.03 0.03 0.03 0.04 0.04 0.04 0.04 0.03 0.02 0.02 0.03 0.04 0.05 0.05 0.05 0.05 0.05 0.06 0.08 0.10 0.12 0.12 0.12 0.11 0.10 0.10 0.10
0.01 0.02 0.02 0.01 0.01 0.01 0.01 0.02 0.02 0.02 0.02 0.02 0.02 0.02 0.02 0.02 0.02 0.03 0.03 0.03 0.03 0.04 0.03 0.03 0.02 0.03 0.03 0.04 0.04 0.05 0.05 0.05 0.06 0.07 0.08 0.09 0.10 0.11 0.10 0.09 0.09 0.09 0.09
MSLP
1020.50 1019.91 1019.21 1018.41 1017.56 1016.67 1015.77 1014.88 1014.00 1013.14 1012.30 1011.47 1010.67 1009.89 1009.14 1008.42 1007.74 1007.09 1006.50 1005.95 1005.45 1005.02 1004.65 1004.38 1004.20 1004.11 1004.12 1004.19 1004.32 1004.47 1004.61 1004.72 1004.78 1004.77 1004.69 1004.57 1004.40 1004.20 1003.98 1003.74 1003.50 1003.26 1003.02
1020.34 1019.65 1018.86 1018.00 1017.09 1016.17 1015.25 1014.35 1013.47 1012.61 1011.76 1010.93 1010.10 1009.28 1008.48 1007.70 1006.96 1006.26 1005.61 1005.03 1004.51 1004.08 1003.72 1003.46 1003.29 1003.23 1003.24 1003.33 1003.48 1003.64 1003.81 1003.96 1004.06 1004.10 1004.08 1003.99 1003.85 1003.67 1003.44 1003.19 1002.92 1002.64 1002.37
1020.21 1019.43 1018.56 1017.63 1016.67 1015.71 1014.78 1013.88 1013.00 1012.15 1011.30 1010.45 1009.60 1008.74 1007.88 1007.04 1006.23 1005.47 1004.77 1004.15 1003.61 1003.16 1002.81 1002.55 1002.39 1002.32 1002.33 1002.41 1002.56 1002.73 1002.93 1003.12 1003.28 1003.40 1003.45 1003.44 1003.36 1003.21 1003.00 1002.75 1002.45 1002.14 1001.83
1020.16 1019.31 1018.36 1017.36 1016.35 1015.36 1014.41 1013.50 1012.63 1011.78 1010.92 1010.06 1009.16 1008.25 1007.33 1006.41 1005.53 1004.70 1003.96 1003.30 1002.73 1002.27 1001.91 1001.64 1001.46 1001.37 1001.36 1001.42 1001.54 1001.72 1001.94 1002.17 1002.40 1002.61 1002.77 1002.87 1002.88 1002.81 1002.65 1002.41 1002.12 1001.78 1001.44
1020.20 1019.29 1018.29 1017.24 1016.18 1015.15 1014.18 1013.25 1012.36 1011.49 1010.61 1009.71 1008.77 1007.79 1006.80 1005.81 1004.85 1003.97 1003.17 1002.47 1001.89 1001.41 1001.03 1000.75 1000.54 1000.41 1000.35 1000.36 1000.44 1000.60 1000.82 1001.10 1001.40 1001.71 1001.99 1002.22 1002.36 1002.40 1002.33 1002.15 1001.89 1001.56 1001.21
1020.33 1019.39 1018.34 1017.24 1016.14 1015.07 1014.06 1013.10 1012.18 1011.27 1010.35 1009.40 1008.39 1007.35 1006.28 1005.21 1004.19 1003.25 1002.41 1001.69 1001.09 1000.60 1000.20 999.89 999.65 999.46 999.34 999.28 999.30 999.42 999.62 999.92 1000.28 1000.69 1001.09 1001.46 1001.75 1001.93 1001.98 1001.91 1001.71 1001.43 1001.09
1020.50 1019.54 1018.48 1017.34 1016.20 1015.09 1014.03 1013.02 1012.05 1011.09 1010.11 1009.09 1008.02 1006.90 1005.76 1004.64 1003.56 1002.58 1001.71 1000.98 1000.37 999.87 999.47 999.13 998.84 998.59 998.39 998.25 998.19 998.24 998.40 998.69 999.09 999.56 1000.08 1000.58 1001.03 1001.37 1001.57 1001.62 1001.53 1001.32 1001.03
1020.68 1019.72 1018.64 1017.48 1016.31 1015.15 1014.03 1012.96 1011.93 1010.90 1009.85 1008.77 1007.63 1006.45 1005.25 1004.08 1002.98 1001.97 1001.10 1000.37 999.77 999.28 998.87 998.51 998.18 997.87 997.59 997.35 997.20 997.15 997.25 997.50 997.90 998.41 999.01 999.62 1000.20 1000.70 1001.05 1001.25 1001.29 1001.18 1000.96
1020.82 1019.87 1018.79 1017.62 1016.41 1015.21 1014.03 1012.90 1011.79 1010.69 1009.58 1008.42 1007.23 1006.00 1004.77 1003.58 1002.46 1001.46 1000.60 999.89 999.31 998.83 998.43 998.06 997.70 997.34 996.98 996.65 996.40 996.25 996.26 996.45 996.81 997.33 997.96 998.65 999.33 999.95 1000.44 1000.78 1000.95 1000.96 1000.83
1020.91 1019.97 1018.90 1017.72 1016.48 1015.24 1014.01 1012.81 1011.63 1010.46 1009.28 1008.07 1006.83 1005.58 1004.33 1003.14 1002.04 1001.06 1000.23 999.54 999.00 998.54 998.16 997.79 997.41 997.00 996.58 996.18 995.84 995.60 995.51 995.62 995.92 996.40 997.02 997.73 998.47 999.17 999.77 1000.22 1000.51 1000.64 1000.60
1020.97 1020.04 1018.97 1017.78 1016.53 1015.24 1013.96 1012.70 1011.46 1010.22 1008.99 1007.74 1006.47 1005.21 1003.97 1002.79 1001.71 1000.77 999.97 999.33 998.81 998.39 998.02 997.65 997.27 996.84 996.39 995.94 995.53 995.22 995.05 995.07 995.29 995.70 996.28 996.97 997.71 998.43 999.08 999.61 999.99 1000.20 1000.25
1021.03 1020.11 1019.04 1017.85 1016.57 1015.25 1013.92 1012.60 1011.30 1010.02 1008.73 1007.45 1006.17 1004.91 1003.69 1002.54 1001.49 1000.59 999.82 999.21 998.71 998.31 997.95 997.60 997.22 996.80 996.34 995.87 995.43 995.07 994.85 994.80 994.94 995.27 995.77 996.39 997.09 997.79 998.43 998.99 999.40 999.68 999.80
1021.14 1020.23 1019.16 1017.96 1016.66 1015.31 1013.93 1012.56 1011.21 1009.87 1008.56 1007.25 1005.97 1004.71 1003.51 1002.39 1001.37 1000.49 999.75 999.14 998.66 998.26 997.90 997.56 997.19 996.78 996.34 995.88 995.45 995.09 994.85 994.75 994.83 995.08 995.49 996.02 996.63 997.26 997.86 998.39 998.80 999.10 999.26
1021.34 1020.43 1019.35 1018.14 1016.83 1015.44 1014.02 1012.61 1011.21 1009.83 1008.48 1007.16 1005.88 1004.63 1003.45 1002.35 1001.35 1000.48 999.74 999.13 998.63 998.21 997.84 997.50 997.14 996.75 996.35 995.93 995.54 995.20 994.97 994.86 994.90 995.08 995.40 995.83 996.33 996.86 997.38 997.84 998.22 998.51 998.69
1021.63 1020.72 1019.64 1018.41 1017.07 1015.66 1014.20 1012.74 1011.30 1009.89 1008.52 1007.19 1005.91 1004.68 1003.51 1002.42 1001.44 1000.56 999.81 999.17 998.63 998.18 997.78 997.42 997.06 996.70 996.33 995.97 995.63 995.35 995.15 995.05 995.07 995.21 995.45 995.78 996.17 996.59 997.00 997.38 997.71 997.96 998.14
1022.01 1021.09 1020.00 1018.75 1017.39 1015.95 1014.46 1012.97 1011.50 1010.06 1008.68 1007.34 1006.07 1004.85 1003.70 1002.63 1001.65 1000.77 999.99 999.31 998.72 998.22 997.78 997.38 997.01 996.65 996.32 996.01 995.74 995.51 995.36 995.29 995.31 995.41 995.60 995.84 996.13 996.45 996.76 997.05 997.30 997.52 997.69
1022.42 1021.49 1020.38 1019.12 1017.73 1016.27 1014.76 1013.25 1011.76 1010.32 1008.93 1007.60 1006.35 1005.16 1004.04 1002.99 1002.02 1001.14 1000.33 999.62 998.98 998.42 997.92 997.47 997.07 996.72 996.40 996.12 995.89 995.72 995.61 995.57 995.60 995.69 995.83 996.01 996.22 996.44 996.67 996.88 997.08 997.26 997.42
1022.82 1021.88 1020.75 1019.47 1018.06 1016.58 1015.07 1013.55 1012.06 1010.63 1009.26 1007.97 1006.75 1005.60 1004.52 1003.52 1002.58 1001.71 1000.91 1000.17 999.49 998.88 998.32 997.82 997.38 996.99 996.66 996.39 996.19 996.04 995.96 995.94 995.98 996.05 996.16 996.30 996.46 996.62 996.78 996.95 997.11 997.27 997.42
1023.16 1022.20 1021.05 1019.75 1018.35 1016.87 1015.36 1013.86 1012.40 1011.00 1009.67 1008.43 1007.26 1006.18 1005.18 1004.24 1003.36 1002.53 1001.75 1001.01 1000.31 999.66 999.06 998.51 998.01 997.58 997.22 996.93 996.71 996.57 996.49 996.48 996.51 996.57 996.67 996.78 996.90 997.03 997.17 997.31 997.46 997.61 997.77
1023.42 1022.44 1021.28 1019.98 1018.58 1017.13 1015.65 1014.18 1012.76 1011.41 1010.15 1008.97 1007.89 1006.90 1005.98 1005.13 1004.34 1003.58 1002.85 1002.15 1001.46 1000.80 1000.16 999.56 999.01 998.53 998.11 997.78 997.53 997.36 997.27 997.24 997.25 997.31 997.39 997.49 997.61 997.73 997.86 998.01 998.17 998.33 998.51
1023.61 1022.61 1021.45 1020.17 1018.80 1017.37 1015.94 1014.53 1013.17 1011.88 1010.69 1009.60 1008.62 1007.72 1006.92 1006.18 1005.49 1004.83 1004.18 1003.54 1002.89 1002.24 1001.59 1000.96 1000.36 999.82 999.35 998.96 998.67 998.45 998.33 998.27 998.27 998.31 998.39 998.49 998.61 998.75 998.90 999.06 999.24 999.43 999.62
1023.75 1022.76 1021.61 1020.36 1019.03 1017.66 1016.29 1014.94 1013.64 1012.43 1011.32 1010.32 1009.43 1008.65 1007.96 1007.34 1006.77 1006.22 1005.67 1005.11 1004.51 1003.89 1003.25 1002.61 1001.98 1001.39 1000.87 1000.43 1000.08 999.82 999.66 999.57 999.56 999.60 999.67 999.78 999.92 1000.07 1000.24 1000.43 1000.64 1000.85 1001.06
1023.90 1022.92 1021.82 1020.62 1019.34 1018.03 1016.72 1015.44 1014.21 1013.07 1012.03 1011.11 1010.31 1009.63 1009.05 1008.55 1008.10 1007.66 1007.22 1006.74 1006.22 1005.64 1005.03 1004.39 1003.74 1003.13 1002.57 1002.09 1001.70 1001.41 1001.22 1001.12 1001.09 1001.13 1001.22 1001.34 1001.49 1001.66 1001.85 1002.06 1002.27 1002.49 1002.71
1024.09 1023.16 1022.11 1020.97 1019.76 1018.52 1017.26 1016.04 1014.86 1013.78 1012.80 1011.94 1011.22 1010.62 1010.14 1009.74 1009.40 1009.08 1008.73 1008.34 1007.89 1007.37 1006.79 1006.17 1005.53 1004.91 1004.34 1003.84 1003.43 1003.13 1002.93 1002.83 1002.81 1002.86 1002.95 1003.09 1003.25 1003.43 1003.62 1003.83 1004.04 1004.24 1004.44
1024.35 1023.49 1022.51 1021.44 1020.30 1019.11 1017.91 1016.73 1015.59 1014.54 1013.61 1012.80 1012.13 1011.60 1011.19 1010.88 1010.63 1010.40 1010.14 1009.83 1009.45 1008.99 1008.45 1007.86 1007.24 1006.63 1006.06 1005.57 1005.18 1004.89 1004.71 1004.62 1004.62 1004.69 1004.80 1004.94 1005.10 1005.27 1005.45 1005.62 1005.80 1005.97 1006.12
1024.68 1023.90 1023.00 1022.00 1020.92 1019.78 1018.62 1017.47 1016.36 1015.33 1014.41 1013.63 1013.00 1012.52 1012.17 1011.93 1011.75 1011.59 1011.41 1011.17 1010.85 1010.44 1009.95 1009.40 1008.81 1008.23 1007.69 1007.23 1006.87 1006.61 1006.47 1006.42 1006.45 1006.54 1006.67 1006.81 1006.96 1007.10 1007.23 1007.35 1007.46 1007.55 1007.64
Thickness
5614 5612 5609 5606 5603 5600 5598 5596 5595 5595 5593 5592 5590 5589 5588 5586 5585 5584 5583 5582 5582 5583 5583 5583 5583 5583 5583 5584 5584 5585 5584 5585 5585 5585 5589 5594 5597 5600 5603 5604 5606 5608 5610
5606 5604 5602 5598 5596 5594 5591 5590 5589 5588 5586 5585 5583 5581 5579 5578 5577 5576 5575 5574 5572 5572 5573 5573 5572 5572 5572 5572 5572 5571 5571 5571 5570 5569 5570 5576 5583 5589 5592 5593 5594 5596 5597
5602 5598 5595 5592 5589 5587 5586 5586 5583 5581 5580 5578 5576 5573 5570 5569 5568 5568 5567 5566 5563 5563 5563 5563 5562 5562 5561 5561 5561 5559 5558 5558 5557 5555 5555 5557 5564 5571 5578 5580 5582 5584 5585
5597 5594 5590 5587 5584 5582 5580 5578 5576 5575 5573 5570 5568 5565 5562 5561 5561 5560 5558 5557 5555 5554 5554 5554 5553 5552 5551 5550 5549 5549 5547 5545 5544 5543 5544 5545 5547 5549 5558 5565 5568 5570 5573
5591 5589 5586 5583 5580 5576 5573 5571 5569 5567 5565 5563 5560 5557 5554 5553 5552 5551 5549 5548 5547 5546 5545 5544 5543 5542 5541 5540 5539 5538 5536 5535 5534 5533 5532 5532 5533 5534 5537 5547 5553 5555 5559
5585 5583 5580 5576 5572 5568 5565 5563 5561 5560 5558 5555 5552 5549 5547 5545 5543 5542 5541 5540 5539 5538 5537 5535 5533 5532 5531 5530 5529 5528 5527 5526 5524 5523 5522 5522 5522 5524 5523 5529 5536 5541 5546
5577 5574 5571 5568 5565 5561 5559 5556 5554 5552 5550 5548 5545 5543 5541 5538 5536 5535 5533 5531 5530 5530 5529 5527 5525 5523 5522 5521 5520 5519 5518 5517 5515 5515 5514 5513 5514 5514 5514 5516 5521 5525 5532
5569 5568 5566 5562 5559 5556 5552 5548 5546 5544 5542 5541 5539 5537 5534 5531 5530 5528 5526 5524 5523 5522 5521 5519 5516 5515 5514 5512 5511 5509 5509 5508 5507 5506 5505 5504 5505 5504 5505 5506 5507 5511 5518
5564 5562 5559 5555 5552 5548 5545 5542 5539 5537 5535 5533 5532 5530 5527 5525 5522 5520 5518 5517 5515 5514 5513 5510 5508 5507 5505 5503 5501 5500 5499 5499 5498 5497 5495 5494 5495 5494 5496 5497 5497 5498 5504
5557 5555 5551 5548 5545 5542 5538 5535 5532 5530 5528 5525 5523 5523 5520 5518 5515 5513 5511 5509 5507 5506 5504 5502 5500 5498 5496 5494 5492 5491 5490 5489 5489 5488 5487 5486 5486 5486 5487 5487 5489 5489 5491
5550 5547 5544 5541 5537 5533 5530 5528 5525 5523 5520 5518 5516 5514 5512 5509 5507 5504 5503 5501 5500 5497 5495 5494 5492 5490 5487 5485 5483 5482 5480 5480 5480 5479 5478 5478 5477 5477 5477 5478 5480 5480 5482
5542 5539 5536 5532 5529 5526 5523 5521 5519 5516 5514 5511 5508 5505 5502 5500 5498 5496 5495 5493 5492 5490 5488 5485 5483 5481 5479 5477 5474 5473 5472 5471 5471 5471 5470 5470 5470 5469 5469 5470 5472 5474 5475
5535 5531 5527 5524 5521 5519 5517 5514 5511 5508 5505 5502 5498 5495 5492 5490 5489 5488 5487 5485 5483 5482 5479 5477 5475 5473 5471 5469 5467 5464 5463 5463 5462 5462 5462 5463 5461 5462 5462 5463 5465 5467 5468
5526 5522 5519 5516 5514 5512 5509 5506 5503 5500 5497 5493 5489 5486 5484 5482 5480 5480 5478 5476 5474 5472 5471 5469 5467 5465 5463 5461 5459 5456 5455 5454 5454 5454 5454 5454 5455 5455 5455 5457 5459 5460 5461
5518 5515 5512 5509 5505 5503 5501 5499 5495 5491 5488 5483 5480 5477 5476 5474 5473 5471 5470 5468 5466 5465 5462 5460 5459 5457 5455 5453 5451 5448 5447 5446 5446 5446 5446 5447 5448 5449 5449 5451 5452 5453 5455
5511 5509 5506 5502 5499 5496 5494 5490 5487 5483 5479 5475 5472 5470 5468 5467 5465 5464 5462 5460 5459 5457 5454 5452 5451 5449 5448 5446 5444 5441 5439 5438 5437 5438 5439 5440 5441 5442 5444 5446 5448 5450 5450
5504 5502 5499 5496 5492 5489 5486 5482 5479 5475 5471 5468 5465 5463 5461 5459 5458 5457 5455 5453 5451 5449 5447 5446 5443 5442 5440 5439 5437 5435 5432 5430 5430 5430 5431 5433 5435 5436 5437 5440 5443 5445 5447
5496 5493 5490 5487 5484 5481 5477 5474 5470 5467 5463 5461 5459 5456 5454 5452 5451 5449 5447 5446 5444 5443 5441 5440 5437 5435 5434 5432 5431 5429 5426 5424 5424 5424 5425 5427 5429 5431 5431 5433 5437 5440 5443
5486 5483 5481 5478 5475 5472 5469 5466 5462 5458 5455 5453 5451 5449 5447 5446 5444 5443 5441 5440 5438 5437 5435 5433 5431 5429 5429 5427 5425 5423 5420 5420 5420 5420 5422 5423 5425 5426 5427 5429 5432 5435 5439
5476 5473 5471 5468 5465 5463 5460 5457 5453 5450 5447 5445 5443 5442 5440 5438 5437 5436 5434 5433 5431 5430 5429 5428 5425 5423 5423 5422 5420 5418 5415 5415 5416 5417 5418 5421 5421 5423 5425 5426 5428 5431 5434
5465 5463 5461 5458 5456 5453 5450 5447 5445 5442 5440 5438 5436 5434 5433 5431 5430 5428 5427 5425 5424 5424 5422 5422 5421 5419 5417 5417 5416 5414 5412 5411 5411 5412 5414 5417 5418 5420 5422 5424 5426 5429 5431
5454 5452 5450 5448 5445 5442 5440 5438 5436 5434 5432 5430 5428 5427 5425 5424 5423 5421 5420 5418 5417 5416 5416 5417 5417 5415 5413 5412 5411 5411 5410 5408 5407 5408 5410 5412 5414 5416 5419 5421 5424 5426 5429
5442 5441 5439 5437 5435 5432 5430 5428 5427 5425 5423 5421 5420 5419 5418 5416 5414 5413 5412 5411 5410 5409 5410 5410 5411 5411 5409 5407 5407 5407 5406 5405 5404 5405 5407 5408 5410 5413 5416 5419 5422 5424 5426
5431 5430 5428 5427 5425 5423 5421 5419 5417 5416 5414 5413 5412 5411 5410 5409 5408 5406 5405 5404 5402 5402 5402 5402 5403 5403 5403 5403 5402 5401 5400 5401 5401 5401 5403 5405 5407 5409 5412 5415 5417 5419 5421
5420 5419 5417 5416 5415 5413 5412 5410 5408 5407 5406 5405 5404 5403 5403 5401 5401 5400 5398 5397 5396 5394 5395 5396 5395 5395 5397 5397 5397 5396 5397 5397 5397 5398 5399 5401 5402 5404 5406 5409 5411 5413 5415
5409 5408 5407 5406 5404 5403 5402 5400 5399 5398 5397 5397 5396 5395 5394 5394 5394 5394 5394 5394 5391 5392 5391 5390 5390 5390 5391 5392 5393 5393 5394 5395 5396 5396 5395 5396 5397 5399 5401 5403 5405 5408 5410